Temperature
19 20 21 22 21 20 20 18 19 19 19 20 18 18 18 18 19 18 19 19 19 19 18 18 18 18 17 17 17 16 16 16 16 16 16 16 16 16 15 15 15 15 15 15
20 21 21 22 21 21 21 19 20 20 19 18 17 18 18 18 18 18 18 18 18 18 18 18 18 18 17 17 17 17 16 16 16 16 16 15 15 15 15 15 15 15 15 15
19 20 21 20 20 20 20 19 19 19 19 17 17 16 17 17 17 18 18 18 18 18 18 18 18 18 17 17 17 16 16 16 16 16 16 15 15 15 15 15 15 15 15 14
16 19 20 19 19 19 18 18 17 18 17 17 16 16 16 17 17 18 18 18 18 18 18 18 18 17 17 17 17 16 16 16 16 15 15 15 15 15 15 14 14 14 14 14
15 17 18 19 19 18 18 17 17 16 16 16 16 16 16 17 17 17 17 18 18 18 18 17 17 17 17 17 16 16 16 16 15 15 15 15 14 14 14 14 14 14 13 13
14 17 17 18 18 18 18 17 17 16 15 16 16 16 16 17 17 17 17 17 17 17 17 17 17 17 16 16 16 16 15 15 15 15 15 14 14 14 14 13 13 13 12 12
15 16 16 17 16 18 18 17 17 16 16 16 16 16 17 17 17 17 17 17 16 16 17 17 17 16 16 16 15 15 15 15 15 14 14 14 14 13 13 13 12 12 11 11
13 15 16 16 16 16 16 16 16 16 16 16 16 16 16 16 16 16 16 16 16 16 16 15 16 15 15 15 15 15 15 14 14 14 13 13 13 12 12 12 11 11 10 10
13 14 14 13 14 14 15 15 16 16 16 16 16 16 15 15 15 15 15 15 15 15 15 15 15 15 15 14 14 14 14 14 13 13 13 12 12 12 11 11 11 10 10 9
12 13 13 13 13 14 15 15 16 16 16 15 15 15 15 14 14 14 14 14 14 14 14 14 14 14 14 14 14 14 13 13 12 12 12 11 11 11 10 10 9 9 9 8
12 13 13 13 13 14 14 14 15 15 14 14 14 13 13 13 13 13 13 13 13 13 13 13 13 13 13 13 13 13 12 12 12 11 11 10 10 9 9 9 9 8 8 8
12 13 12 13 13 13 13 13 13 13 13 13 13 13 12 12 12 12 12 12 12 12 12 12 12 12 12 12 12 12 12 11 11 10 10 9 9 8 7 7 7 7 7 7
14 14 13 12 12 12 12 12 12 12 12 12 12 12 12 11 11 11 11 11 11 11 11 11 11 11 11 11 11 11 11 10 10 9 9 9 8 8 7 6 6 6 6 6
14 13 12 12 12 12 12 11 11 11 11 11 11 11 11 11 10 10 10 10 10 10 10 10 10 10 10 10 10 10 10 9 9 9 8 8 7 7 7 6 6 5 5 5
13 13 12 12 11 11 11 11 10 10 10 10 10 10 10 10 10 9 10 10 10 10 10 10 10 9 9 9 9 9 9 9 8 8 7 7 7 7 6 6 5 5 5 4
12 12 11 11 10 10 10 10 10 9 9 9 9 9 9 9 9 9 9 9 9 9 9 9 9 9 9 9 9 8 8 8 8 7 7 7 6 6 6 6 5 5 5 4
11 10 10 9 9 9 9 9 9 9 9 9 9 9 9 9 9 9 9 9 9 9 9 9 8 8 8 8 8 8 8 7 7 7 7 6 6 6 6 5 5 5 4 4
12 12 11 11 10 9 9 9 9 9 8 8 8 8 8 9 8 8 8 8 8 8 8 8 8 8 8 8 8 8 7 7 7 7 6 6 6 6 5 5 5 4 4 4
11 11 10 10 9 9 9 9 8 8 8 8 8 8 8 8 8 8 8 8 8 8 8 8 8 8 8 7 7 7 7 7 7 6 6 6 6 6 5 5 5 4 4 4
11 10 10 9 9 9 9 8 8 8 8 8 8 8 8 8 8 8 8 8 8 8 7 7 7 7 7 7 7 7 7 7 7 7 6 6 6 5 5 5 4 4 4 4
10 10 9 9 9 9 9 8 8 8 8 8 8 8 8 8 8 8 8 8 7 7 7 7 7 7 7 7 7 7 7 7 7 7 6 6 6 5 5 5 4 4 4 3
10 9 9 9 9 9 8 8 8 8 8 8 8 8 8 8 8 8 8 8 7 7 7 7 7 7 7 7 7 7 7 7 7 6 6 6 6 5 5 5 4 4 4 3
9 9 9 9 9 9 9 8 9 8 8 8 8 8 8 8 8 8 7 7 7 7 7 7 7 7 7 7 7 7 7 7 6 6 6 6 5 5 5 5 4 4 4 3
9 9 9 9 9 9 9 9 9 9 8 8 8 8 8 8 8 7 7 7 7 7 7 7 7 7 7 7 7 7 7 6 6 6 6 6 5 5 5 4 4 4 4 4
9 9 9 9 9 9 9 9 9 8 8 8 8 8 8 8 8 8 7 7 7 7 7 7 7 7 7 7 7 6 6 6 6 6 6 5 5 5 5 4 4 4 4 4
9 9 9 9 9 9 9 9 9 8 8 8 8 8 8 8 8 7 7 7 7 7 7 7 7 7 7 7 6 6 6 6 6 6 5 5 5 5 5 4 4 4 4 4
9 9 9 9 9 9 9 9 9 8 8 8 8 8 8 8 7 7 7 7 7 7 7 7 7 6 6 6 6 6 6 6 6 5 5 5 5 5 5 5 4 4 4 4
Wind_Speed
5 5 4 5 6 8 6 9 9 9 8 9 7 5 4 2 3 4 5 5 6 7 6 5 5 4 5 5 5 6 7 7 7 7 7 7 7 7 7 7 7 7 7 6
2 2 3 2 4 7 5 6 5 4 6 4 1 1 2 2 3 4 4 5 5 6 6 6 6 5 5 5 5 6 7 7 6 7 8 8 8 8 8 8 7 8 8 8
2 3 3 3 4 6 4 3 7 8 8 3 2 2 1 1 2 2 3 3 5 6 6 6 6 6 7 6 5 6 6 7 7 8 8 8 9 10 10 9 9 9 9 9
2 2 6 7 3 4 5 1 1 3 3 4 4 4 3 2 2 1 1 1 2 3 4 4 4 5 5 6 6 7 7 7 8 9 9 9 10 10 10 9 10 9 9 10
4 5 3 4 2 4 5 1 1 4 5 5 4 3 3 3 2 1 1 1 1 2 2 3 4 5 6 6 6 7 7 7 8 10 11 11 11 10 10 10 11 10 10 11
5 5 8 7 2 1 5 1 3 5 7 5 4 2 2 1 2 3 2 2 2 2 2 3 4 6 7 7 7 7 7 8 8 10 11 12 12 11 10 11 12 12 11 10
5 4 6 4 4 1 5 7 4 6 6 6 4 4 2 2 2 2 3 3 3 3 2 2 4 7 7 7 7 7 8 9 10 11 12 13 12 11 12 12 12 12 12 10
5 4 7 3 1 5 5 1 3 4 4 4 3 2 2 2 3 3 3 3 3 3 3 3 4 7 7 7 7 9 11 11 11 11 12 13 14 12 12 13 13 12 12 11
6 6 3 1 1 1 1 2 2 2 2 3 2 2 1 1 2 2 2 2 2 3 4 4 4 6 7 7 9 11 12 12 12 13 12 11 13 14 12 10 10 9 9 9
2 3 1 1 1 2 3 2 2 1 1 2 2 2 1 1 1 1 2 2 2 4 5 5 5 7 8 8 10 12 13 13 13 14 13 11 9 10 10 10 10 10 10 9
3 2 0 1 0 1 3 3 3 3 1 1 3 2 2 2 1 2 2 3 4 5 6 6 7 8 9 9 12 13 13 13 13 13 14 13 11 9 9 8 8 11 9 9
6 6 5 4 2 2 2 2 1 2 1 1 2 3 3 3 2 3 3 4 6 7 7 8 9 9 9 9 12 15 13 12 11 12 12 12 13 13 17 14 16 15 13 11
4 2 3 4 3 2 2 2 2 2 2 3 3 5 5 4 4 5 6 6 7 8 9 10 11 11 10 10 12 14 14 13 12 12 12 12 12 13 13 13 17 16 14 14
4 5 4 3 3 3 4 4 5 5 5 5 5 6 7 7 7 8 8 8 9 10 11 12 13 12 10 11 14 15 14 15 14 11 11 11 11 11 11 11 10 8 9 12
2 3 5 6 6 5 6 7 8 7 7 7 7 7 8 9 10 9 9 9 11 12 12 12 13 12 10 12 14 14 13 11 11 11 10 10 10 10 10 11 10 9 7 7
6 7 8 8 8 7 7 8 8 7 7 8 8 9 10 11 11 10 9 9 11 12 11 12 12 10 10 12 13 12 11 17 14 11 11 10 9 10 9 9 9 8 8 7
9 8 8 8 8 7 7 7 8 8 8 9 10 10 12 12 12 12 11 10 11 11 10 11 11 10 11 11 12 11 11 13 16 12 9 9 9 9 9 9 8 7 6 5
5 6 8 10 10 9 9 9 9 10 10 10 11 11 12 12 12 11 11 11 12 12 9 9 10 11 11 10 10 9 10 9 9 9 8 8 8 8 8 8 8 8 6 5
7 8 9 10 10 10 10 10 10 10 11 11 11 11 11 10 10 11 10 11 11 10 7 8 12 11 10 11 11 8 9 10 9 8 8 9 9 8 8 8 8 7 6 5
9 11 11 11 10 10 11 11 11 11 10 11 12 12 11 10 10 10 10 9 6 5 6 8 9 9 8 9 11 8 9 10 10 8 8 8 8 8 7 7 7 6 5 5
11 12 13 12 11 11 11 11 12 12 10 10 11 11 10 9 9 9 9 8 4 6 7 9 7 7 7 8 10 8 8 8 8 8 8 7 7 7 7 7 6 6 5 5
11 12 13 12 12 11 9 9 10 11 11 10 10 10 10 9 9 8 6 5 5 7 6 5 6 8 9 10 7 8 8 8 7 7 7 7 7 7 7 6 6 5 5 5
11 11 12 12 12 11 10 9 10 10 10 10 10 10 9 7 6 7 5 3 4 7 5 4 7 12 12 8 7 7 7 7 7 7 7 7 7 7 7 7 6 6 5 5
11 11 11 11 11 11 10 9 8 8 8 8 8 8 8 7 4 3 4 7 7 7 5 6 11 12 10 6 6 6 6 6 6 6 6 6 6 6 6 6 6 6 6 6
11 11 11 11 10 8 8 9 9 9 8 7 6 6 5 5 5 5 5 6 8 8 5 7 10 10 7 5 6 6 6 6 6 6 7 6 6 6 6 6 6 6 6 6
10 9 8 7 7 7 7 7 7 6 6 6 5 4 5 4 6 6 5 6 7 7 6 4 5 6 5 5 5 5 5 6 6 6 7 7 7 7 6 7 8 7 7 8
10 9 8 8 7 6 6 7 7 6 6 6 5 4 5 5 5 6 6 5 5 4 4 4 4 4 4 5 5 5 5 5 5 6 6 6 6 7 7 8 8 8 9 9
Wind_Direction
233 230 185 194 185 171 168 173 173 213 215 236 239 235 227 198 156 147 151 155 164 166 165 165 168 167 164 166 165 163 160 165 168 162 154 148 143 138 133 131 134 131 126 119
314 298 184 187 193 175 171 167 179 175 231 253 256 150 163 163 156 160 155 163 170 165 168 173 174 173 167 168 167 160 162 165 158 154 151 146 141 133 124 118 116 113 111 108
239 309 94 217 216 183 174 183 168 187 215 170 133 125 163 177 166 172 154 147 167 175 180 183 181 176 174 168 159 155 154 152 152 153 147 142 134 123 121 115 109 104 104 103
161 131 204 245 279 157 131 110 198 170 140 139 132 107 65 61 113 91 100 129 160 173 177 178 173 171 164 153 156 158 154 149 144 140 134 127 123 120 117 113 111 106 102 101
140 177 235 274 229 158 139 201 247 144 129 116 121 80 27 27 65 79 87 99 161 164 167 163 166 162 153 152 153 153 152 148 144 140 134 130 126 122 118 113 107 102 101 102
137 164 212 231 274 193 111 221 221 154 149 147 128 112 262 6 52 55 55 63 77 99 112 146 159 149 147 151 151 156 152 145 137 133 130 128 125 120 114 111 108 103 96 94
158 198 246 257 298 105 165 223 189 159 155 151 162 184 179 98 64 58 60 60 75 95 107 135 144 144 147 147 153 144 129 125 123 121 122 121 117 116 115 111 106 102 97 89
149 179 237 303 66 181 209 166 125 145 147 144 147 125 100 78 59 48 51 53 74 89 88 97 128 141 144 147 140 126 122 119 117 117 120 121 119 114 111 111 108 105 101 90
188 207 247 322 206 325 107 115 116 130 126 131 140 157 133 88 58 40 55 60 73 91 89 83 100 129 135 131 124 122 118 115 113 109 109 115 118 117 112 107 108 110 107 103
226 249 253 346 21 27 50 86 88 109 142 154 178 186 159 124 89 64 60 80 94 99 97 91 93 101 111 115 118 117 115 113 112 109 105 101 103 109 113 114 113 111 110 109
236 236 157 272 214 77 64 70 71 57 69 169 162 171 169 152 127 102 88 89 102 108 109 101 98 99 104 112 115 112 110 110 109 108 109 101 89 84 96 94 117 121 119 119
214 209 184 201 175 137 101 75 82 90 53 67 139 145 132 125 114 103 98 99 104 102 102 102 102 100 102 109 114 113 110 108 108 110 110 109 104 88 68 82 87 90 99 107
202 144 134 132 132 115 117 118 106 101 122 113 106 121 122 115 104 103 100 99 104 103 101 100 98 95 95 102 106 108 111 111 110 111 113 113 113 111 103 80 72 79 90 100
147 125 132 152 143 119 120 115 101 89 90 103 109 110 112 110 103 99 98 96 99 101 101 100 97 94 94 101 103 104 107 110 112 112 113 113 115 116 117 117 108 88 78 94
144 143 144 129 119 113 116 116 109 102 101 99 103 108 112 112 106 99 96 97 98 97 99 101 100 99 101 105 107 108 109 112 111 111 110 111 112 113 114 115 116 116 109 94
121 111 120 126 128 124 123 122 119 118 114 111 107 107 109 107 103 100 97 100 103 102 102 103 103 105 109 110 109 106 110 118 117 116 116 115 115 117 119 121 123 124 125 127
139 146 149 146 143 137 131 126 125 124 120 116 115 113 112 108 103 98 93 92 95 96 98 102 103 105 106 110 114 116 117 122 121 118 121 125 126 128 130 131 131 130 133 142
150 153 151 148 146 139 129 121 121 122 122 119 116 112 111 110 109 106 104 101 96 89 85 97 106 106 106 109 111 117 119 123 128 130 129 128 130 133 135 136 139 136 132 127
136 137 134 134 133 131 127 123 121 118 117 117 115 111 107 105 106 107 105 103 104 101 93 98 108 105 106 115 116 116 122 125 126 126 127 129 129 134 139 142 143 143 143 141
129 130 129 127 124 125 126 125 122 120 119 118 114 109 106 106 108 107 101 94 93 112 120 115 112 111 114 122 122 123 128 131 133 133 133 138 141 144 147 149 149 150 153 158
133 132 131 129 125 125 128 129 128 125 122 120 119 118 116 112 110 109 108 103 88 103 112 115 115 118 119 125 123 127 130 133 137 140 144 146 148 150 152 155 158 164 169 174
135 134 131 129 126 125 126 127 127 126 125 123 120 119 117 114 110 100 91 111 126 121 115 116 121 130 134 130 128 131 134 137 140 143 148 152 156 160 164 167 171 177 183 188
131 129 128 128 126 124 121 123 126 129 130 132 132 131 129 126 125 126 122 120 122 123 119 125 139 139 135 129 132 137 141 145 149 155 160 164 167 170 175 180 186 190 193 200
122 122 122 121 120 120 122 124 122 123 124 126 130 134 131 125 109 101 121 136 137 129 123 138 142 140 133 132 137 142 148 153 157 161 164 166 171 176 181 188 194 200 204 210
117 119 121 126 127 128 124 120 114 113 113 113 116 120 122 130 137 142 134 137 140 132 126 136 139 137 134 137 144 150 156 164 166 167 171 174 181 186 192 198 202 206 212 219
109 112 114 115 119 123 125 123 121 121 121 120 116 118 116 114 121 127 130 137 139 136 134 132 135 137 141 148 153 159 164 168 172 178 184 187 192 196 202 208 212 215 221 228
98 99 99 96 95 103 113 119 124 129 134 136 129 129 130 131 131 134 137 140 142 143 144 144 146 150 156 162 167 170 175 180 186 190 194 197 201 207 212 215 220 224 229 234
Height
1460 1456 1456 1456 1458 1462 1465 1471 1479 1475 1472 1464 1460 1460 1460 1461 1463 1465 1467 1469 1472 1474 1477 1479 1482 1484 1486 1488 1490 1492 1494 1497 1499 1502 1505 1509 1513 1516 1520 1523 1526 1529 1532 1535
1458 1453 1453 1455 1455 1457 1458 1462 1464 1465 1466 1458 1458 1459 1460 1461 1463 1464 1466 1468 1470 1473 1475 1478 1480 1482 1484 1486 1488 1491 1493 1495 1498 1501 1504 1507 1511 1515 1518 1522 1525 1527 1530 1533
1467 1458 1456 1465 1457 1456 1457 1457 1458 1463 1460 1457 1458 1459 1460 1461 1462 1463 1465 1467 1469 1471 1473 1476 1478 1480 1483 1485 1487 1489 1492 1494 1497 1500 1503 1507 1510 1513 1517 1520 1523 1526 1529 1531
1471 1465 1475 1463 1451 1451 1455 1456 1455 1454 1455 1456 1458 1460 1461 1461 1462 1463 1465 1467 1469 1470 1472 1474 1477 1479 1481 1483 1486 1488 1490 1493 1496 1499 1502 1506 1509 1512 1515 1519 1522 1524 1527 1530
1476 1475 1468 1458 1451 1452 1455 1458 1455 1455 1456 1457 1459 1460 1462 1462 1462 1464 1465 1466 1468 1469 1471 1473 1475 1477 1479 1482 1484 1486 1489 1492 1495 1498 1501 1505 1508 1511 1514 1517 1520 1523 1526 1529
1473 1473 1477 1460 1449 1448 1453 1461 1454 1454 1455 1457 1459 1465 1465 1463 1463 1464 1465 1466 1467 1468 1469 1471 1472 1475 1477 1479 1482 1485 1487 1491 1494 1497 1500 1504 1507 1510 1513 1516 1518 1521 1525 1528
1470 1469 1463 1452 1449 1450 1463 1459 1451 1452 1454 1456 1458 1461 1462 1462 1463 1464 1465 1466 1466 1467 1468 1469 1471 1472 1475 1477 1480 1483 1487 1490 1493 1496 1500 1503 1506 1509 1511 1514 1517 1520 1524 1527
1469 1469 1466 1450 1449 1453 1453 1449 1450 1452 1453 1455 1457 1459 1461 1461 1463 1463 1464 1465 1466 1466 1467 1467 1469 1471 1473 1476 1479 1482 1485 1489 1492 1496 1499 1502 1505 1508 1511 1514 1517 1520 1523 1527
1460 1460 1453 1450 1450 1450 1449 1449 1450 1452 1454 1455 1457 1458 1460 1461 1462 1463 1463 1464 1465 1465 1466 1467 1468 1470 1472 1475 1478 1481 1484 1487 1491 1495 1499 1502 1505 1508 1511 1514 1517 1520 1524 1527
1455 1452 1450 1450 1450 1449 1449 1450 1451 1452 1454 1455 1456 1457 1459 1460 1461 1462 1462 1463 1464 1464 1465 1467 1468 1470 1472 1474 1477 1480 1483 1487 1491 1495 1499 1503 1506 1509 1511 1515 1518 1521 1524 1528
1453 1450 1450 1450 1450 1450 1450 1450 1451 1452 1453 1454 1454 1456 1458 1459 1460 1461 1461 1462 1463 1464 1465 1466 1468 1470 1473 1475 1478 1481 1484 1487 1491 1495 1499 1503 1508 1511 1514 1518 1521 1524 1527 1530
1450 1446 1447 1448 1449 1450 1450 1450 1451 1451 1452 1453 1453 1454 1456 1458 1459 1460 1461 1462 1463 1464 1465 1467 1469 1471 1474 1476 1479 1481 1485 1489 1492 1496 1501 1504 1509 1513 1518 1521 1525 1528 1531 1534
1443 1443 1445 1446 1448 1449 1449 1450 1450 1451 1451 1452 1452 1453 1455 1456 1458 1459 1460 1462 1463 1465 1467 1469 1470 1473 1475 1478 1481 1483 1486 1490 1495 1499 1503 1507 1511 1514 1519 1524 1528 1531 1534 1537
1441 1442 1444 1445 1446 1447 1448 1449 1449 1450 1451 1451 1452 1453 1454 1456 1458 1459 1461 1463 1465 1467 1469 1471 1473 1476 1479 1481 1484 1487 1490 1494 1498 1502 1507 1511 1515 1518 1522 1525 1529 1533 1537 1540
1440 1441 1442 1443 1445 1446 1447 1448 1449 1450 1451 1452 1453 1454 1455 1457 1459 1461 1463 1466 1468 1470 1473 1475 1477 1480 1483 1486 1488 1491 1494 1498 1503 1507 1511 1515 1519 1522 1526 1529 1532 1536 1539 1542
1438 1440 1441 1443 1444 1446 1447 1448 1449 1450 1452 1453 1454 1456 1458 1459 1462 1464 1467 1470 1472 1474 1477 1479 1482 1485 1488 1491 1493 1496 1500 1503 1507 1511 1515 1519 1523 1527 1530 1533 1536 1539 1541 1544
1437 1439 1440 1442 1444 1446 1447 1448 1450 1452 1453 1455 1457 1459 1461 1463 1466 1469 1472 1475 1477 1479 1482 1484 1486 1490 1493 1495 1498 1501 1504 1508 1512 1516 1520 1523 1527 1530 1533 1536 1538 1541 1543 1545
1436 1438 1439 1441 1443 1445 1447 1449 1452 1453 1455 1458 1460 1462 1465 1467 1470 1473 1476 1479 1481 1484 1487 1490 1493 1495 1498 1500 1503 1506 1509 1512 1516 1520 1524 1527 1530 1533 1536 1538 1540 1542 1544 1546
1435 1437 1440 1442 1444 1447 1449 1451 1454 1456 1459 1461 1464 1466 1469 1472 1475 1478 1481 1483 1486 1489 1493 1495 1498 1500 1503 1506 1508 1511 1514 1517 1520 1524 1527 1530 1532 1535 1538 1540 1542 1544 1545 1547
1435 1438 1440 1443 1446 1449 1452 1454 1457 1460 1463 1466 1468 1471 1474 1477 1480 1483 1485 1488 1491 1494 1497 1500 1503 1505 1508 1510 1513 1516 1518 1521 1523 1526 1529 1532 1534 1537 1539 1541 1543 1544 1546 1547
1435 1438 1441 1444 1448 1452 1455 1458 1460 1464 1467 1470 1473 1475 1478 1482 1485 1487 1489 1492 1496 1498 1501 1504 1506 1509 1511 1514 1517 1519 1522 1524 1526 1528 1531 1533 1535 1538 1540 1542 1543 1545 1546 1547
1436 1440 1443 1447 1451 1455 1458 1462 1465 1468 1471 1474 1477 1480 1483 1486 1489 1491 1494 1497 1500 1502 1505 1507 1510 1512 1515 1517 1519 1522 1524 1526 1528 1530 1532 1534 1536 1538 1540 1542 1543 1545 1546 1547
1439 1442 1446 1450 1454 1458 1462 1465 1469 1472 1475 1478 1481 1484 1486 1489 1492 1494 1497 1500 1503 1505 1508 1510 1512 1515 1517 1519 1521 1523 1525 1527 1529 1531 1533 1535 1537 1538 1540 1542 1543 1544 1545 1546
1442 1446 1450 1454 1458 1462 1465 1469 1473 1476 1479 1482 1485 1487 1490 1492 1495 1498 1500 1503 1505 1507 1510 1512 1514 1517 1519 1521 1523 1524 1526 1528 1530 1531 1533 1535 1536 1538 1540 1541 1542 1543 1544 1544
1446 1450 1454 1458 1462 1465 1469 1473 1476 1479 1482 1485 1488 1490 1493 1496 1498 1500 1502 1505 1507 1509 1511 1513 1516 1518 1520 1521 1523 1525 1526 1528 1530 1531 1533 1534 1536 1537 1538 1539 1540 1541 1542 1542
1451 1455 1459 1463 1466 1469 1473 1476 1479 1482 1485 1488 1490 1493 1495 1497 1500 1502 1504 1506 1508 1510 1512 1514 1516 1518 1520 1521 1523 1525 1526 1527 1529 1530 1532 1533 1534 1535 1536 1537 1538 1539 1539 1539
1457 1460 1464 1467 1470 1473 1476 1479 1482 1485 1487 1490 1492 1494 1497 1499 1501 1503 1505 1507 1509 1511 1512 1514 1516 1518 1519 1521 1522 1524 1525 1526 1528 1529 1530 1531 1532 1533 1534 1535 1535 1536 1536 1536